Petersburg, AK

5:29 PM AKDT on October 20, 2017 (GMT -0800)
Johnson Petersburg

Weather History for PAPG - April, 2013

Change the Weather History Date:

Thursday, April 25, 2013

  Actual Average Record
Temperature  
Mean Temperature 44 °F -  
Max Temperature 46 °F 47 °F 64 °F (2003)
Min Temperature 41 °F 34 °F 26 °F (2008)
Degree Days  
Heating Degree Days 22    
Moisture  
Dew Point 39 °F    
Average Humidity 81    
Maximum Humidity 87    
Minimum Humidity 76    
Precipitation  
Precipitation 1.03 in - - ()
Sea Level Pressure  
Sea Level Pressure 29.70 in    
Wind  
Wind Speed 5 mph (SE)    
Max Wind Speed 12 mph    
Max Gust Speed 20 mph    
Visibility 7 miles    
Events Rain    
Averages and records for this station are not official NWS values.
T = Trace of Precipitation, MM = Missing Value Source: NWS Daily Summary

Daily Weather History Graph

Daily Weather History Graph

Search for Another Location

Airport or City:

Trip Planner

Search our weather history database for the weather conditions in past years. The results will help you decide how hot, cold, wet, or windy it might be!

Date:

Astronomy

Apr. 25, 2013 Rise Set
Actual Time 5:17 AM AKDT 8:22 PM AKDT
Civil Twilight 4:33 AM AKDT 9:07 PM AKDT
Nautical Twilight 3:34 AM AKDT 10:07 PM AKDT
Astronomical Twilight 2:08 AM AKDT 11:37 PM AKDT
Moon 8:52 PM AKDT (4/25) 5:06 AM AKDT (4/25)
Length of Visible Light 16h 33m
Length of Day
15h 04m
Full, 100% of the Moon is Illuminated
Apr 25
Full
May 2
Last Quarter
May 9
New
May 17
First Quarter
May 24
Full

Hourly Weather History & Observations

Time (AKDT) Temp. Windchill Dew Point Humidity Pressure Visibility Wind Dir Wind Speed Gust Speed Precip Events Conditions
12:16 AM 44.6 °F 41.4 °F 39.2 °F 81% 29.87 in 9.0 mi South 5.8 mph - 0.04 in   Overcast
12:36 AM 44.6 °F 41.4 °F 39.2 °F 81% 29.87 in 7.0 mi SSW 5.8 mph - 0.04 in   Overcast
12:56 AM - - - N/A% 29.86 in 10.0 mi SE 5.8 mph - 0.06 in   Unknown
1:16 AM 44.6 °F 42.2 °F 39.2 °F 81% 29.86 in 10.0 mi SE 4.6 mph - 0.04 in   Overcast
1:36 AM 44.6 °F 43.1 °F 39.2 °F 81% 29.85 in 9.0 mi ESE 3.5 mph - 0.07 in   Mostly Cloudy
1:56 AM 44.6 °F 42.2 °F 39.2 °F 81% 29.84 in 7.0 mi SE 4.6 mph - 0.10 in   Overcast
2:16 AM 44.6 °F 40.7 °F 39.2 °F 81% 29.83 in 6.0 mi South 6.9 mph - 0.04 in   Overcast
2:36 AM 44.6 °F - 39.2 °F 81% 29.82 in 5.0 mi Calm Calm - 0.08 in   Overcast
2:56 AM 44.6 °F 42.2 °F 39.2 °F 81% 29.81 in 5.0 mi SSE 4.6 mph - 0.08 in   Overcast
3:16 AM 44.6 °F 38.8 °F 39.2 °F 81% 29.81 in 5.0 mi South 11.5 mph 16.1 mph N/A   Overcast
3:36 AM 44.6 °F 40.7 °F 39.2 °F 81% 29.80 in 10.0 mi SSE 6.9 mph - 0.01 in   Overcast
3:56 AM 44.6 °F 43.1 °F 39.2 °F 81% 29.79 in 9.0 mi SSE 3.5 mph - 0.01 in   Overcast
4:16 AM 44.6 °F - 39.2 °F 81% 29.79 in 7.0 mi Calm Calm - N/A   Overcast
4:36 AM 44.6 °F 40.2 °F 39.2 °F 81% 29.78 in 8.0 mi South 8.1 mph - N/A   Overcast
4:56 AM 44.6 °F 40.7 °F 39.2 °F 81% 29.77 in 5.0 mi South 6.9 mph - N/A   Overcast
5:16 AM 44.6 °F 43.1 °F 39.2 °F 81% 29.76 in 6.0 mi SE 3.5 mph - N/A   Overcast
5:36 AM 44.6 °F - 39.2 °F 81% 29.75 in 5.0 mi Calm Calm - 0.01 in   Overcast
5:56 AM 44.6 °F 43.1 °F 39.2 °F 81% 29.75 in 5.0 mi South 3.5 mph - 0.01 in   Overcast
6:16 AM 44.6 °F 40.7 °F 39.2 °F 81% 29.74 in 10.0 mi South 6.9 mph - N/A   Overcast
6:36 AM 44.6 °F 39.7 °F 37.4 °F 76% 29.73 in 10.0 mi South 9.2 mph - N/A   Overcast
6:56 AM 44.6 °F 40.7 °F 39.2 °F 81% 29.72 in 10.0 mi SSW 6.9 mph - N/A   Overcast
7:16 AM 44.6 °F 42.2 °F 37.4 °F 76% 29.72 in 10.0 mi South 4.6 mph - N/A   Overcast
7:36 AM 44.6 °F 43.1 °F 39.2 °F 81% 29.72 in 10.0 mi ENE 3.5 mph - N/A   Overcast
7:56 AM 44.6 °F - 39.2 °F 81% 29.71 in 10.0 mi Calm Calm - N/A   Overcast
8:16 AM 44.6 °F 41.4 °F 39.2 °F 81% 29.70 in 10.0 mi NNW 5.8 mph - N/A   Overcast
8:36 AM 44.6 °F - 37.4 °F 76% 29.70 in 10.0 mi Calm Calm - N/A   Overcast
8:56 AM 44.6 °F 43.1 °F 39.2 °F 81% 29.70 in 10.0 mi NE 3.5 mph - N/A   Overcast
9:16 AM 44.6 °F 40.7 °F 39.2 °F 81% 29.69 in 10.0 mi East 6.9 mph - N/A   Overcast
9:36 AM 44.6 °F - 39.2 °F 81% 29.69 in 10.0 mi Calm Calm - N/A   Overcast
9:56 AM 44.6 °F - 39.2 °F 81% 29.70 in 3.0 mi Calm Calm - N/A   Overcast
10:16 AM 44.6 °F - 39.2 °F 81% 29.70 in 3.0 mi Calm Calm - N/A   Overcast
10:36 AM 44.6 °F 41.4 °F 41.0 °F 87% 29.70 in 3.0 mi North 5.8 mph - N/A   Overcast
10:56 AM 44.6 °F 40.7 °F 39.2 °F 81% 29.70 in 3.0 mi NE 6.9 mph - N/A   Overcast
11:16 AM 44.6 °F 41.4 °F 39.2 °F 81% 29.69 in 3.0 mi ENE 5.8 mph - N/A   Overcast
11:36 AM 46.4 °F 44.3 °F 41.0 °F 81% 29.69 in 3.0 mi ESE 4.6 mph - N/A   Overcast
11:56 AM 46.4 °F 42.9 °F 41.0 °F 81% 29.69 in 5.0 mi ENE 6.9 mph - N/A   Overcast
12:16 PM 46.4 °F 44.3 °F 41.0 °F 81% 29.69 in 5.0 mi ESE 4.6 mph - N/A   Overcast
12:36 PM 44.6 °F - 41.0 °F 87% 29.68 in 5.0 mi Calm Calm - 0.02 in   Overcast
12:56 PM 46.4 °F 42.4 °F 41.0 °F 81% 29.68 in 7.0 mi South 8.1 mph - 0.03 in   Overcast
1:16 PM 46.4 °F 41.9 °F 39.2 °F 76% 29.68 in 7.0 mi SSE 9.2 mph 16.1 mph 0.01 in   Overcast
1:36 PM 46.4 °F 41.1 °F 39.2 °F 76% 29.68 in 7.0 mi South 11.5 mph 19.6 mph 0.02 in   Overcast
1:56 PM 46.4 °F 41.5 °F 39.2 °F 76% 29.68 in 7.0 mi South 10.4 mph 16.1 mph 0.03 in   Overcast
2:16 PM 46.4 °F 42.9 °F 39.2 °F 76% 29.68 in 7.0 mi South 6.9 mph - 0.01 in   Overcast
2:50 PM 46.4 °F 43.5 °F 39.2 °F 76% 29.68 in 7.0 mi South 5.8 mph - N/A Rain Light Rain Showers
3:16 PM - - - N/A% - 7.0 mi North - - N/A   Overcast
3:36 PM 46.4 °F 44.3 °F 39.2 °F 76% 29.66 in 7.0 mi West 4.6 mph - N/A   Overcast
3:56 PM 46.4 °F 41.9 °F 39.2 °F 76% 29.66 in 7.0 mi South 9.2 mph - N/A   Overcast
4:16 PM 46.4 °F 44.3 °F 39.2 °F 76% 29.65 in 7.0 mi South 4.6 mph - N/A   Overcast
4:36 PM 44.6 °F - 37.4 °F 76% 29.64 in 7.0 mi Calm Calm - N/A   Overcast
4:56 PM 44.6 °F 43.1 °F 39.2 °F 81% 29.64 in 7.0 mi SSE 3.5 mph - 0.11 in   Overcast
5:16 PM 44.6 °F 41.4 °F 39.2 °F 81% 29.63 in 7.0 mi SSE 5.8 mph - 0.03 in   Overcast
5:36 PM 44.6 °F 39.2 °F 37.4 °F 76% 29.63 in 7.0 mi South 10.4 mph - 0.08 in   Overcast
5:56 PM 44.6 °F 40.7 °F 37.4 °F 76% 29.64 in 7.0 mi SSE 6.9 mph - 0.10 in   Overcast
6:16 PM 44.6 °F 42.2 °F 39.2 °F 81% 29.64 in 7.0 mi East 4.6 mph - 0.04 in   Overcast
6:36 PM 42.8 °F 38.6 °F 39.2 °F 87% 29.64 in 7.0 mi East 6.9 mph - 0.09 in   Overcast
6:56 PM 44.6 °F 42.2 °F 39.2 °F 81% 29.63 in 7.0 mi East 4.6 mph - 0.12 in   Overcast
7:16 PM 44.6 °F 41.4 °F 39.2 °F 81% 29.62 in 7.0 mi East 5.8 mph - 0.07 in   Overcast
7:36 PM 42.8 °F 41.1 °F 39.2 °F 87% 29.62 in 7.0 mi East 3.5 mph - 0.10 in   Overcast
7:56 PM 42.8 °F - 39.2 °F 87% 29.61 in 4.0 mi Calm Calm - 0.13 in   Overcast
8:16 PM 42.8 °F - 39.2 °F 87% 29.61 in 4.0 mi Calm Calm - 0.04 in   Overcast
8:36 PM 42.8 °F - 39.2 °F 87% 29.61 in 4.0 mi Calm Calm - 0.09 in   Overcast
8:56 PM 42.8 °F 40.1 °F 37.4 °F 81% 29.61 in 4.0 mi SE 4.6 mph - 0.11 in   Overcast
9:16 PM 42.8 °F - 37.4 °F 81% 29.61 in 4.0 mi Calm Calm - 0.03 in   Overcast
9:36 PM 42.8 °F 41.1 °F 39.2 °F 87% 29.61 in 4.0 mi East 3.5 mph - 0.07 in   Overcast
10:16 PM 41.0 °F - 37.4 °F 87% 29.60 in 10.0 mi Calm Calm - N/A   Overcast
10:36 PM 41.0 °F - 37.4 °F 87% 29.60 in 10.0 mi Calm Calm - N/A   Overcast
11:16 PM 41.0 °F 38.0 °F 37.4 °F 87% 29.59 in 9.0 mi East 4.6 mph - N/A   Overcast
11:36 PM 41.0 °F - 37.4 °F 87% 29.58 in 10.0 mi Calm Calm - N/A   Overcast
11:56 PM 41.0 °F 39.0 °F 37.4 °F 87% 29.58 in 9.0 mi NE 3.5 mph - 0.06 in   Overcast